When you browse on this site, cookies collect data to enhance your experience and personalize the content and advertising you see.
Visit our Privacy Policy to learn more. By continuing to use the site, you agree to this use of cookies and data.
  • In Belgium
  • List of Countries
  • For 7 days
  • Water Temperature
  • Satellite Maps
  • Weather Map
  • Weather Widgets
  • user-avatar
    Login

    Hourly Weather Aspelt

    Today, 21 February, Thursday

    Time Temperature Precipitation Wind Pressure Humidity
    00:00 +6°C° 0 mm 1 mps 745 mmHg 91%
    01:00 +6°C° 0 mm 1 mps 745 mmHg 92%
    02:00 +5°C° 0 mm 1 mps 745 mmHg 93%
    03:00 +5°C° 0 mm 1 mps 745 mmHg 93%
    04:00 +5°C° 0 mm 1 mps 745 mmHg 94%
    05:00 +5°C° 0 mm 1 mps 745 mmHg 94%
    06:00 +5°C° 0 mm 1 mps 746 mmHg 94%
    07:00 +6°C° 0 mm 1 mps 746 mmHg 91%
    08:00 +7°C° 0 mm 1 mps 746 mmHg 88%
    09:00 +8°C° 0 mm 1 mps 747 mmHg 85%
    10:00 +9°C° 0 mm 1 mps 747 mmHg 80%
    11:00 +10°C° 0 mm 2 mps 747 mmHg 75%
    12:00 +12°C° 0 mm 2 mps 747 mmHg 70%
    13:00 +12°C° 0 mm 2 mps 747 mmHg 69%
    14:00 +13°C° 0 mm 2 mps 747 mmHg 69%
    15:00 +13°C° 0 mm 2 mps 747 mmHg 68%
    16:00 +12°C° 0 mm 2 mps 747 mmHg 74%
    17:00 +9°C° 0 mm 2 mps 747 mmHg 79%
    18:00 +9°C° 0 mm 1 mps 747 mmHg 85%
    19:00 +9°C° 0 mm 1 mps 747 mmHg 87%
    20:00 +8°C° 0 mm 1 mps 748 mmHg 88%
    21:00 +8°C° 0 mm 1 mps 748 mmHg 89%
    22:00 +7°C° 0 mm 1 mps 748 mmHg 90%
    23:00 +7°C° 0 mm 1 mps 748 mmHg 90%

    Tomorrow, 22 February, Friday

    Time Temperature Precipitation Wind Pressure Humidity
    00:00 +7°C° 0 mm 1 mps 749 mmHg 91%
    01:00 +7°C° 0 mm 1 mps 749 mmHg 91%
    02:00 +6°C° 0 mm 1 mps 749 mmHg 91%
    03:00 +6°C° 0 mm 1 mps 749 mmHg 91%
    04:00 +6°C° 0 mm 1 mps 749 mmHg 91%
    05:00 +6°C° 0 mm 1 mps 750 mmHg 91%
    06:00 +6°C° 0 mm 1 mps 750 mmHg 90%
    07:00 +7°C° 0 mm 1 mps 750 mmHg 88%
    08:00 +8°C° 0 mm 1 mps 751 mmHg 85%
    09:00 +9°C° 0 mm 1 mps 751 mmHg 83%
    10:00 +10°C° 0 mm 1 mps 751 mmHg 80%
    11:00 +11°C° 0 mm 1 mps 751 mmHg 77%
    12:00 +12°C° 0 mm 1 mps 751 mmHg 74%
    13:00 +13°C° 0 mm 2 mps 751 mmHg 74%
    14:00 +13°C° 0 mm 2 mps 751 mmHg 74%
    15:00 +13°C° 0 mm 3 mps 751 mmHg 75%
    16:00 +11°C° 0 mm 3 mps 751 mmHg 80%
    17:00 +10°C° 0 mm 3 mps 751 mmHg 84%
    18:00 +9°C° 0 mm 3 mps 751 mmHg 89%
    19:00 +8°C° 0 mm 3 mps 751 mmHg 91%
    20:00 +7°C° 0 mm 3 mps 752 mmHg 92%
    21:00 +7°C° 0 mm 3 mps 752 mmHg 93%
    22:00 +5°C° 0 mm 3 mps 752 mmHg 92%
    23:00 +5°C° 0 mm 3 mps 752 mmHg 92%

    Day after tomorrow, 23 February, Saturday

    Time Temperature Precipitation Wind Pressure Humidity
    00:00 +5°C° 0 mm 3 mps 752 mmHg 91%
    01:00 +4°C° 0 mm 3 mps 752 mmHg 91%
    02:00 +4°C° 0 mm 3 mps 751 mmHg 92%
    03:00 +3°C° 0 mm 3 mps 751 mmHg 92%
    04:00 +3°C° 0 mm 3 mps 751 mmHg 92%
    05:00 +3°C° 0 mm 3 mps 751 mmHg 92%
    06:00 +2°C° 0 mm 3 mps 751 mmHg 92%
    07:00 +3°C° 0 mm 3 mps 752 mmHg 87%
    08:00 +4°C° 0 mm 4 mps 752 mmHg 82%
    09:00 +5°C° 0 mm 4 mps 752 mmHg 77%
    10:00 +7°C° 0 mm 4 mps 752 mmHg 69%
    11:00 +8°C° 0 mm 5 mps 752 mmHg 60%
    12:00 +9°C° 0 mm 5 mps 752 mmHg 51%
    13:00 +9°C° 0 mm 5 mps 752 mmHg 49%
    14:00 +9°C° 0 mm 5 mps 751 mmHg 47%
    15:00 +9°C° 0 mm 5 mps 751 mmHg 44%
    16:00 +8°C° 0 mm 4 mps 751 mmHg 47%
    17:00 +7°C° 0 mm 4 mps 751 mmHg 50%
    18:00 +5°C° 0 mm 4 mps 751 mmHg 53%
    19:00 +5°C° 0 mm 4 mps 752 mmHg 55%
    20:00 +4°C° 0 mm 4 mps 752 mmHg 56%
    21:00 +4°C° 0 mm 4 mps 752 mmHg 58%
    22:00 +3°C° 0 mm 4 mps 752 mmHg 58%
    23:00 +3°C° 0 mm 4 mps 752 mmHg 59%

    24 February, Sunday

    Time Temperature Precipitation Wind Pressure Humidity
    00:00 +3°C° 0 mm 3 mps 752 mmHg 60%
    01:00 +3°C° 0 mm 3 mps 752 mmHg 59%
    02:00 +2°C° 0 mm 3 mps 751 mmHg 58%
    03:00 +2°C° 0 mm 3 mps 751 mmHg 57%
    04:00 +2°C° 0 mm 3 mps 751 mmHg 56%
    05:00 +2°C° 0 mm 3 mps 752 mmHg 56%
    06:00 +1°C° 0 mm 3 mps 752 mmHg 55%
    07:00 +3°C° 0 mm 3 mps 752 mmHg 52%
    08:00 +4°C° 0 mm 3 mps 752 mmHg 50%
    09:00 +5°C° 0 mm 4 mps 753 mmHg 47%
    10:00 +6°C° 0 mm 4 mps 753 mmHg 45%
    11:00 +8°C° 0 mm 4 mps 753 mmHg 43%
    12:00 +11°C° 0 mm 4 mps 753 mmHg 41%
    13:00 +11°C° 0 mm 4 mps 753 mmHg 43%
    14:00 +11°C° 0 mm 3 mps 752 mmHg 45%
    15:00 +12°C° 0 mm 3 mps 752 mmHg 46%
    16:00 +10°C° 0 mm 3 mps 752 mmHg 51%
    17:00 +9°C° 0 mm 3 mps 752 mmHg 55%
    18:00 +7°C° 0 mm 3 mps 752 mmHg 59%
    19:00 +5°C° 0 mm 3 mps 753 mmHg 60%
    20:00 +5°C° 0 mm 3 mps 753 mmHg 60%
    21:00 +5°C° 0 mm 2 mps 753 mmHg 61%
    22:00 +5°C° 0 mm 2 mps 753 mmHg 62%
    23:00 +5°C° 0 mm 2 mps 753 mmHg 63%

    25 February, Monday

    Time Temperature Precipitation Wind Pressure Humidity
    00:00 +5°C° 0 mm 2 mps 753 mmHg 65%
    01:00 +5°C° 0 mm 2 mps 753 mmHg 65%
    02:00 +5°C° 0 mm 2 mps 753 mmHg 66%
    03:00 +4°C° 0 mm 2 mps 753 mmHg 67%
    04:00 +4°C° 0 mm 2 mps 753 mmHg 68%
    05:00 +4°C° 0 mm 2 mps 753 mmHg 70%
    06:00 +4°C° 0 mm 2 mps 753 mmHg 72%
    07:00 +5°C° 0 mm 2 mps 753 mmHg 69%
    08:00 +6°C° 0 mm 2 mps 753 mmHg 67%
    09:00 +7°C° 0 mm 2 mps 753 mmHg 64%
    10:00 +9°C° 0 mm 3 mps 753 mmHg 62%
    11:00 +11°C° 0 mm 3 mps 753 mmHg 59%
    12:00 +12°C° 0 mm 3 mps 752 mmHg 56%
    13:00 +13°C° 0 mm 3 mps 752 mmHg 57%
    14:00 +13°C° 0 mm 3 mps 752 mmHg 57%
    15:00 +14°C° 0 mm 3 mps 751 mmHg 58%
    16:00 +12°C° 0 mm 3 mps 751 mmHg 64%
    17:00 +10°C° 0 mm 3 mps 751 mmHg 70%
    18:00 +9°C° 0 mm 3 mps 751 mmHg 76%
    19:00 +8°C° 0 mm 3 mps 751 mmHg 76%
    20:00 +7°C° 0 mm 3 mps 751 mmHg 77%
    21:00 +5°C° 0 mm 3 mps 751 mmHg 78%
    22:00 +5°C° 0 mm 3 mps 751 mmHg 78%
    23:00 +5°C° 0 mm 3 mps 751 mmHg 77%

    26 February, Tuesday

    Time Temperature Precipitation Wind Pressure Humidity
    00:00 +4°C° 0 mm 3 mps 750 mmHg 77%
    01:00 +4°C° 0 mm 3 mps 750 mmHg 76%
    02:00 +4°C° 0 mm 2 mps 749 mmHg 75%
    03:00 +4°C° 0 mm 2 mps 749 mmHg 74%
    04:00 +4°C° 0 mm 2 mps 749 mmHg 72%
    05:00 +2°C° 0 mm 3 mps 749 mmHg 70%
    06:00 +2°C° 0 mm 3 mps 749 mmHg 68%
    07:00 +3°C° 0 mm 3 mps 749 mmHg 64%
    08:00 +5°C° 0 mm 3 mps 749 mmHg 60%
    09:00 +7°C° 0 mm 3 mps 749 mmHg 56%
    10:00 +9°C° 0 mm 3 mps 749 mmHg 52%
    11:00 +11°C° 0 mm 3 mps 748 mmHg 48%
    12:00 +13°C° 0 mm 3 mps 748 mmHg 44%
    13:00 +13°C° 0 mm 3 mps 747 mmHg 45%
    14:00 +14°C° 0 mm 3 mps 747 mmHg 46%
    15:00 +14°C° 0 mm 3 mps 746 mmHg 47%
    16:00 +12°C° 0 mm 3 mps 746 mmHg 51%
    17:00 +10°C° 0 mm 2 mps 746 mmHg 56%
    18:00 +8°C° 0 mm 2 mps 746 mmHg 60%
    19:00 +7°C° 0 mm 2 mps 746 mmHg 61%
    20:00 +7°C° 0 mm 2 mps 745 mmHg 63%
    21:00 +6°C° 0 mm 2 mps 745 mmHg 64%
    22:00 +6°C° 0 mm 2 mps 745 mmHg 65%
    23:00 +6°C° 0 mm 1 mps 745 mmHg 67%
    Show more